User: anonymous   Login
Location: Oshawa
(43.9000°N, 78.8670°W)
Time: 23:21:47
(UTC-05:00)
Language:

S-56A Canister/Altair - Orbit

View from above orbital plane
View from above orbital plane
View from above satellite
View from above satellite

Ground track
Ground track

The orbit data is extracted from the following two-line orbital elements,

1 00082U 61004B   15062.34835950  .00000022  00000-0  65392-4 0  9995
2 00082 038.8540 153.3037 1174131 117.0076 255.5281 12.25679960570571
Epoch (UTC): 03 March 2015 08:21:38
Eccentricity: 0.1174131
inclination: 38.8540°
perigee height: 635 km
apogee height: 2501 km
right ascension of ascending node: 153.3037°
argument of perigee: 117.0076°
revolutions per day: 12.25679960
mean anomaly at epoch: 255.5281°
orbit number at epoch: 57057

The dashed part of the orbit path shows where the satellite is in the earth's shadow,  

DLR